| time (UTC) | temp C | wind direction | speed KPH | gust KPH | rain 1hr cm | rain 24hr cm | rain mn cm | humidity % | barometer mb |
| 20260902113027 | 25 | 238 | 9.7 | 16.1 | 0.00 | 0.00 | 0.00 | 98 | 1014.8 |
| 20260902111537 | 25 | 232 | 9.7 | 17.7 | 0.00 | 0.00 | 0.00 | 97 | 1014.6 |
| 20260902110036 | 25 | 211 | 9.7 | 14.5 | 0.00 | 0.00 | 0.00 | 97 | 1014.6 |
| 20260902104536 | 25 | 226 | 8.0 | 14.5 | 0.00 | 0.00 | 0.00 | 97 | 1014.5 |
| 20260902103022 | 25 | 227 | 6.4 | 11.3 | 0.00 | 0.00 | 0.00 | 97 | 1014.7 |
| 20260902101521 | 25 | 225 | 9.7 | 14.5 | 0.00 | 0.00 | 0.00 | 97 | 1014.6 |
| 20260902100030 | 25 | 236 | 6.4 | 11.3 | 0.00 | 0.00 | 0.00 | 97 | 1014.4 |
| 20260902094522 | 26 | 232 | 6.4 | 14.5 | 0.00 | 0.00 | 0.00 | 97 | 1014.5 |
| 20260902093017 | 26 | 225 | 4.8 | 8.0 | 0.00 | 0.00 | 0.00 | 97 | 1014.4 |
| 20260902091517 | 26 | 231 | 4.8 | 12.9 | 0.00 | 0.00 | 0.00 | 97 | 1014.2 |
| 20260902090014 | 25 | 222 | 6.4 | 9.7 | 0.00 | 0.00 | 0.00 | 97 | 1014.3 |
| 20260902084513 | 25 | 238 | 4.8 | 8.0 | 0.00 | 0.00 | 0.00 | 97 | 1014.5 |
| 20260902083012 | 25 | 229 | 4.8 | 14.5 | 0.00 | 0.00 | 0.00 | 96 | 1014.4 |
| 20260902081516 | 25 | 229 | 8.0 | 14.5 | 0.00 | 0.00 | 0.00 | 96 | 1014.4 |
| 20260902080010 | 25 | 231 | 8.0 | 11.3 | 0.00 | 0.00 | 0.00 | 96 | 1014.5 |
| 20260902074508 | 25 | 254 | 6.4 | 11.3 | 0.00 | 0.00 | 0.00 | 95 | 1014.6 |
| 20260902073007 | 25 | 257 | 3.2 | 8.0 | 0.00 | 0.00 | 0.00 | 95 | 1014.7 |
| 20260902071511 | 25 | 228 | 4.8 | 8.0 | 0.00 | 0.00 | 0.00 | 95 | 1014.8 |
| 20260902070008 | 25 | 256 | 3.2 | 4.8 | 0.00 | 0.00 | 0.00 | 95 | 1014.8 |
| 20260902064503 | 25 | 226 | 3.2 | 6.4 | 0.00 | 0.00 | 0.00 | 94 | 1014.7 |
| 20260902063007 | 25 | 229 | 4.8 | 8.0 | 0.00 | 0.00 | 0.00 | 94 | 1014.8 |
| 20260902061503 | 25 | 227 | 4.8 | 8.0 | 0.00 | 0.00 | 0.00 | 94 | 1014.8 |
| 20260902060006 | 26 | 228 | 3.2 | 4.8 | 0.00 | 0.00 | 0.00 | 93 | 1014.9 |
| 20260902054605 | 26 | 198 | 0.0 | 6.4 | 0.00 | 0.00 | 0.00 | 94 | 1014.8 |
| 20260902053059 | 26 | 190 | 0.0 | 0.0 | 0.00 | 0.00 | 0.00 | 94 | 1014.8 |
| 20260902051558 | 26 | 190 | 0.0 | 0.0 | 0.00 | 0.00 | 0.00 | 93 | 1014.6 |
| 20260902044552 | 27 | 155 | 0.0 | 0.0 | 0.00 | 0.00 | 0.00 | 91 | 1014.7 |
| 20260902043053 | 27 | 155 | 0.0 | 0.0 | 0.00 | 0.00 | 0.00 | 90 | 1014.8 |
| 20260902041604 | 27 | 155 | 0.0 | 0.0 | 0.00 | 0.00 | 0.00 | 90 | 1014.8 |
| 20260902040050 | 27 | 59 | 0.0 | 0.0 | 0.00 | 0.00 | 0.00 | 90 | 1014.9 |
| 20260902034554 | 27 | 59 | 0.0 | 0.0 | 0.00 | 0.00 | 0.00 | 90 | 1014.8 |
| 20260902033104 | 27 | 59 | 0.0 | 0.0 | 0.00 | 0.00 | 0.00 | 89 | 1014.6 |
| 20260902031549 | 27 | 59 | 0.0 | 0.0 | 0.00 | 0.00 | 0.00 | 88 | 1014.6 |
| 20260902030048 | 27 | 59 | 0.0 | 0.0 | 0.00 | 0.00 | 0.00 | 89 | 1014.5 |
| 20260902024549 | 27 | 183 | 0.0 | 0.0 | 0.00 | 0.00 | 0.00 | 89 | 1014.3 |
| 20260902023048 | 27 | 183 | 0.0 | 3.2 | 0.00 | 0.00 | 0.00 | 89 | 1014.0 |
| 20260902021607 | 27 | 183 | 0.0 | 4.8 | 0.00 | 0.00 | 0.00 | 89 | 1013.9 |
| 20260902020055 | 27 | 191 | 8.0 | 11.3 | 0.00 | 0.00 | 0.00 | 88 | 1013.8 |
| 20260902014547 | 28 | 169 | 4.8 | 6.4 | 0.00 | 0.00 | 0.00 | 86 | 1013.5 |
| 20260902013046 | 28 | 150 | 3.2 | 6.4 | 0.00 | 0.00 | 0.00 | 83 | 1013.5 |
| 20260902011548 | 28 | 135 | 4.8 | 11.3 | 0.00 | 0.00 | 0.00 | 81 | 1013.3 |
| 20260902010056 | 29 | 143 | 9.7 | 16.1 | 0.00 | 0.00 | 0.00 | 78 | 1013.2 |
| 20260902004546 | 30 | 149 | 6.4 | 14.5 | 0.00 | 0.00 | 0.00 | 73 | 1013.2 |
| 20260902003042 | 31 | 86 | 6.4 | 12.9 | 0.00 | 0.00 | 0.00 | 64 | 1013.0 |
| 20260902001541 | 31 | 92 | 4.8 | 9.7 | 0.00 | 0.00 | 0.00 | 65 | 1013.0 |
| 20260902000051 | 31 | 106 | 8.0 | 12.9 | 0.00 | 0.00 | 0.00 | 64 | 1013.1 |
| 20260901234604 | 32 | 66 | 6.4 | 16.1 | 0.00 | 0.00 | 0.00 | 62 | 1012.9 |
| 20260901233040 | 32 | 88 | 9.7 | 17.7 | 0.00 | 0.00 | 0.00 | 61 | 1013.1 |
| 20260901231548 | 33 | 92 | 11.3 | 19.3 | 0.00 | 0.00 | 0.00 | 58 | 1013.1 |
| 20260901230056 | 33 | 76 | 6.4 | 9.7 | 0.00 | 0.00 | 0.00 | 63 | 1013.1 |
| 20260901224538 | 32 | 103 | 8.0 | 12.9 | 0.00 | 0.00 | 0.00 | 63 | 1012.9 |
| 20260901223059 | 32 | 100 | 6.4 | 11.3 | 0.00 | 0.00 | 0.00 | 63 | 1012.8 |
| 20260901221537 | 32 | 94 | 3.2 | 12.9 | 0.00 | 0.00 | 0.00 | 65 | 1013.1 |
| 20260901220035 | 32 | 51 | 6.4 | 14.5 | 0.00 | 0.00 | 0.00 | 65 | 1013.3 |
| 20260901214531 | 32 | 95 | 8.0 | 14.5 | 0.00 | 0.00 | 0.00 | 66 | 1013.4 |
| 20260901213030 | 32 | 105 | 11.3 | 17.7 | 0.00 | 0.00 | 0.00 | 65 | 1013.4 |
| 20260901211541 | 33 | 118 | 6.4 | 17.7 | 0.00 | 0.00 | 0.00 | 65 | 1013.4 |
| 20260901210027 | 32 | 111 | 9.7 | 14.5 | 0.00 | 0.00 | 0.00 | 65 | 1013.6 |
| 20260901204539 | 32 | 94 | 8.0 | 16.1 | 0.00 | 0.00 | 0.00 | 67 | 1013.6 |
| 20260901203026 | 32 | 95 | 11.3 | 19.3 | 0.00 | 0.00 | 0.00 | 66 | 1014.0 |
| 20260901201523 | 32 | 97 | 12.9 | 17.7 | 0.00 | 0.00 | 0.00 | 69 | 1014.2 |
| 20260901200035 | 32 | 80 | 14.5 | 22.5 | 0.00 | 0.00 | 0.00 | 66 | 1014.2 |
| 20260901194522 | 32 | 71 | 6.4 | 12.9 | 0.00 | 0.00 | 0.00 | 64 | 1014.3 |
| 20260901193019 | 33 | 48 | 1.6 | 12.9 | 0.00 | 0.00 | 0.00 | 62 | 1014.5 |
| 20260901191521 | 33 | 41 | 4.8 | 9.7 | 0.00 | 0.00 | 0.00 | 62 | 1014.8 |
| 20260901190023 | 33 | 69 | 1.6 | 16.1 | 0.00 | 0.00 | 0.00 | 65 | 1014.9 |
| 20260901184519 | 33 | 90 | 9.7 | 14.5 | 0.00 | 0.00 | 0.00 | 64 | 1015.0 |
| 20260901183031 | 32 | 27 | 6.4 | 16.1 | 0.00 | 0.00 | 0.00 | 64 | 1015.2 |
| 20260901181507 | 32 | 24 | 8.0 | 16.1 | 0.00 | 0.00 | 0.00 | 66 | 1015.8 |
| 20260901180003 | 31 | 57 | 4.8 | 14.5 | 0.00 | 0.00 | 0.00 | 68 | 1015.8 |
| 20260901174501 | 31 | 42 | 4.8 | 16.1 | 0.00 | 0.00 | 0.00 | 69 | 1016.1 |
| 20260901173110 | 31 | 40 | 4.8 | 17.7 | 0.00 | 0.00 | 0.00 | 70 | 1016.2 |
| 20260901171612 | 31 | 82 | 6.4 | 9.7 | 0.00 | 0.00 | 0.00 | 66 | 1016.4 |
| 20260901164630 | 31 | 17 | 3.2 | 9.7 | 0.00 | 0.00 | 0.00 | 67 | 1016.5 |
| 20260901163055 | 31 | 355 | 3.2 | 8.0 | 0.00 | 0.00 | 0.00 | 68 | 1016.7 |
| 20260901161552 | 30 | 36 | 0.0 | 14.5 | 0.00 | 0.00 | 0.00 | 71 | 1016.6 |
| 20260901160054 | 30 | 5 | 3.2 | 9.7 | 0.00 | 0.00 | 0.00 | 70 | 1016.5 |
| 20260901154550 | 30 | 76 | 4.8 | 12.9 | 0.00 | 0.00 | 0.00 | 72 | 1016.7 |
| 20260901153048 | 30 | 11 | 1.6 | 9.7 | 0.00 | 0.00 | 0.00 | 74 | 1016.8 |
| 20260901151547 | 29 | 49 | 4.8 | 9.7 | 0.00 | 0.00 | 0.00 | 79 | 1016.6 |
| 20260901150041 | 28 | 74 | 3.2 | 8.0 | 0.00 | 0.00 | 0.00 | 85 | 1016.7 |
| 20260901144540 | 27 | 360 | 1.6 | 8.0 | 0.00 | 0.00 | 0.00 | 88 | 1016.7 |
| 20260901143040 | 27 | 57 | 4.8 | 8.0 | 0.00 | 0.00 | 0.00 | 90 | 1016.7 |
| 20260901141531 | 27 | 35 | 1.6 | 8.0 | 0.00 | 0.00 | 0.00 | 92 | 1016.6 |
| 20260901140031 | 26 | 306 | 1.6 | 8.0 | 0.00 | 0.00 | 0.00 | 94 | 1016.9 |
| 20260901134524 | 26 | 13 | 1.6 | 6.4 | 0.00 | 0.00 | 0.00 | 95 | 1016.8 |
| 20260901133035 | 26 | 338 | 1.6 | 6.4 | 0.00 | 0.00 | 0.00 | 95 | 1016.6 |
| 20260901131521 | 25 | 342 | 3.2 | 6.4 | 0.00 | 0.00 | 0.00 | 97 | 1016.7 |
| 20260901130020 | 25 | 355 | 1.6 | 4.8 | 0.00 | 0.00 | 0.00 | 97 | 1016.4 |
| 20260901124518 | 24 | 292 | 0.0 | 0.0 | 0.00 | 0.00 | 0.00 | 97 | 1016.3 |
| 20260901123017 | 24 | 292 | 0.0 | 4.8 | 0.00 | 0.00 | 0.00 | 98 | 1016.0 |
| 20260901121519 | 24 | 311 | 0.0 | 4.8 | 0.00 | 0.00 | 0.00 | 97 | 1015.8 |
| 20260901120017 | 24 | 338 | 1.6 | 6.4 | 0.00 | 0.00 | 0.00 | 97 | 1015.8 |
| 20260901114514 | 24 | 26 | 0.0 | 4.8 | 0.00 | 0.00 | 0.00 | 97 | 1015.6 |